星链-35821(STARLINK-35821)

导读 | 豆包AI

STARLINK-35817是美国SpaceX公司星链星座的组成部分,于2025年11月6日发射入轨。星链星座旨在低地球轨道构建全球卫星互联网络,为偏远地区、基础设施缺失区域提供高速低延迟宽带服务,该卫星也将助力星链持续扩展覆盖范围,支撑航空、海事、应急通信等多场景应用。

基本信息
目录编号:
66357
目录名称:
STARLINK-35817
国际标识:
2025-254K
轨道中心:
EARTH
卫星名称:
星链-35821
卫星全名:
星链-35821(STARLINK-35821)
卫星状态:
在轨 (已飞行149 天)
发射日期:
2025-11-06 UTC
国别 :
美国 (US)
星等 :
--
轨道信息
数据来源 国际轨道数据
星历时间: 2026-04-03T20:05:47+0800
16小时前
查看轨道信息
半长轴: 6853.385km
偏心率: 0.0001621
轨道倾角: 53.157°
近地点辐角 76.368°
升交点赤经 117.281°
平近点角 283.750°
近地点: 474.137km
远地点: 476.359km
周期: 94.106分钟
每日圈数: 15.301893
详细信息
固有亮度:
5
最大亮度:
2.5
卫星平台:
Starlink V1.0
覆盖范围:
全球
运营商:
太空探索技术公司
运营商所在国:
美国
制造商(研发单位):
太空探索技术公司
制造商所在国:
美国
使用方式:
暂无
卫星简介
Starlink 计划是 SpaceX 推出的全球卫星互联网项目,通过发射低轨道卫星,为全球尤其是偏远地区提供高速、低延迟的互联网服务。自 2019 年起,Starlink 已部署数千颗卫星,旨在缩小全球数字鸿沟,推动互联网普及。该项目还为军事、航空等行业提供通信支持,带来广泛经济效益。
2D轨道图
3D轨道图
轨道高度分析图
轨道倾角分析图
轨道综合分析图
查看轨道综合分析图